NapervilleWeather.com

Find the Weather for any City, State  
or Zipcode, or Country:

Naperville, IL Weather
Local Radar

Local Radar

Graphs, Details
Graphs and Gauges
Detailed Weather
Detailed Reports
Ajax Version (old)
Davis Summary
Davis Current Weather Graphs
Davis 24 Hour Weather History
Cumulus

CW7164 Data

Weather Underground
www.awekas.at
Automatic Weather Map System
Latest Naperville, Illinois, weather
Weather For You
Maps
Temperature
Heat Index
Windchill
Humidity
Radar
Dew Point
Wind
Visibility
Visible Satellite
Satellite
Fronts
Snow Depth
Jet Stream
Flight Rules
Forecast Maps
Temperature Forecast
Maximum Temperature Forecast
Minimum Temperature Forecast
Dewpoint Forecast
Prevalent Weather
12Hr Probability of Precip.
Sky Cover
Health Maps
UV Forecast
Air Quality
Peak Air Quality Index
Weather Station
Davis Instruments Vantage Pro2
Current Conditions [Select Refresh to Update]

Updated: 12:39am on 2/13/16

(location)
Currently:
6.3°F

Clear
Clear

High: 7.2 °F< 
(12:00am
Low: 6.3 °F 
(12:31am)
Wind: NNW 0 mph
Calm
Gust: 8 mph
Today's High Wind: 15 mph (12:22am)
Humidity: 46%
Pressure: 30.57 in  (Steady
Pressure Rate: 0.008 in/hr
Dew Point: -10.0°F
Wind Chill: 6.3 °F
Heat Index (feels like): 6.7 °F
Comfort Level: Uncomfortably Cold
Temperature Rate:  -0.71°F/hr
 
5 Day Forecast
 
Sat Sun Mon Tue Wed
Clear Clear Clear Clear Clear
Partly Cloudy Snow Snow Snow Mostly Cloudy
22 21 31 36 27
4 19 22 17 17

Records and Normals
 
Temperature Forecast Normal Record
High 22 36 45
(2001)
Low 4 19 -2
(2015)
 
 
Weather Advisories
No Warnings
Full Advisory Text...
Weather Map

Web Cam

Almanac
 
Sunrise:  
6:49am
Moonrise: 
9:54am

Moon Phase:
27%

Sunset: 
5:20pm
Moonset:  
11:36pm
 Star Chart...
Rainfall Totals
Hourly Rain 0.00 in
Daily Rain: 0.00 in
Monthly Rain: 0.85 in
Yearly Rain: 2.30 in
Normal Rain, month to date: 1.41 in
Normal Rain, year to date: 2.10 in
Local Weather Exchange Network
Station ID City 
(Click for Map Location)
Neighborhood 
(Click for History)
Last Update (Date & Time) Temperature
 ()
Dew
Point ()
Humidity 
(%)
Wind 
(mph)
from the Wind Gust 
(mph) 
Pressure(in) Hourly
Rain(in)
KILWARRE7 Warrenville West Bauer Road 02/12 22:53:54 13.3 -6.0 41 0 North 0 30.49 0.00
KILNAPER40 Naperville Downtown 02/13 00:21:05 6.4 3.0 87 0 North 0 30.55 0.00
KILNAPER15 Naperville Indian Hill Near Jefferson JHS 02/13 00:25:32 7.2 -7.0 52 3 NNE 14 30.53 0.00
KILNAPER33 Naperville Downtown 02/13 00:21:08 7.0 2.0 81 0 North 0 30.42 0.00
KILNAPER28 Naperville Pawnee Lane 02/13 00:25:19 10.2 -7.0 45 0 North 0 30.54 0.00
KILNAPER25 Naperville brushhill-w 02/13 00:20:36 8.1 -6.0 53 1 NW 6 30.52 0.00
KILNAPER71 Naperville Downtown Naperville 02/13 00:25:31 7.5 -18.0 29 1 NNW 2 --- 0.00
KILNAPER24 Naperville Brush Hill 02/13 00:13:13 7.3 -7.0 53 2 NNW 9 30.48 0.00
KILNAPER19 Naperville Brookdale Lakes 02/13 00:25:39 6.5 -7.0 54 1 West 10 30.55 0.00
KILNAPER65 Naperville South Sleight Street 02/13 00:21:34 65.1 36.0 34 0 North 0 29.65 0.00
KILNAPER69 Naperville East Highlands 02/13 00:25:39 8.1 -18.0 28 3 West 5 30.48 0.00
KILNAPER7 Naperville NapervilleWeather.com Near Ogden and Naper Blvd 02/13 00:25:20 6.5 -10.0 45 0 West 15 30.56 0.00
KILWARRE2 Warrenville Warrenville Neighborhood Weather 02/13 00:15:20 7.3 -6.0 55 4 WNW 0 30.51 0.00
KILNAPER42 Naperville Savannah Circle 02/13 00:21:13 8.4 -8.0 48 0 North 0 30.54 0.00
KILNAPER60 Naperville Longwood 02/13 00:25:34 7.2 -7.0 52 6 West 14 30.46 0.00
KILLISLE15 Lisle Highview Drive 02/13 00:21:22 8.8 -10.0 43 0 North 0 30.35 0.00
KILNAPER23 Naperville Naper Blvd at BNSF RR 02/13 00:25:28 5.5 -6.0 57 1 WNW 9 30.56 0.00
KILLISLE10 Lisle Maple Avenue 02/13 00:20:57 8.8 -7.0 48 0 North 0 30.55 0.00
KILNAPER70 Naperville Naperville Central 02/13 00:25:38 7.5 -18.0 29 4 NNE 7 30.44 0.00
KILLISLE9 Lisle Park Meadow Drive 02/13 00:25:18 9.3 -7.0 48 0 North 0 30.49 0.00
KILWARRE6 Warrenville Summer Lakes 02/13 00:12:47 6.0 -8.0 54 1 WSW 10 30.54 0.00
KILNAPER56 Naperville Ann Reid ECC 02/13 00:11:21 6.3 -7.0 54 9 NNW 0 30.39 0.00
KILNAPER9 Naperville 75th St. / Modaff Area 02/13 00:25:37 6.8 -6.0 54 2 North 6 30.53 0.00
KILLISLE7 Lisle Beau Monde Drive 02/13 00:25:26 6.8 -7.0 54 0 North 0 30.54 0.00
KILWHEAT15 Wheaton Schubert Court 02/13 00:21:16 6.4 -7.0 54 0 North 0 30.41 0.00
KILWHEAT11 Wheaton Wheaton SW Orth Ct 02/13 00:25:39 7.0 -7.0 51 1 SSE 4 30.55 0.00
KILLISLE13 Lisle Oakwood Drive 02/13 00:25:21 12.6 -6.0 42 0 North 0 30.45 0.00
KILAUROR47 Aurora Molitor Road 02/13 00:21:10 44.6 29.0 53 0 North 0 28.50 0.00
KILNAPER67 Naperville Split Oak Road 02/13 00:21:27 7.3 -6.0 54 0 North 0 30.53 0.00
KILAUROR31 Aurora Downing Court 02/13 00:21:15 7.2 -4.0 60 0 North 0 30.55 0.00
KILAUROR27 Aurora Stonehaven 02/13 00:15:20 6.4 -6.0 55 16 NW 0 30.32 0.00
KILNAPER35 Naperville Nutmeg Lane 02/13 00:20:58 7.3 -4.0 61 0 North 0 30.54 0.00
KILAUROR50 Aurora Reddington Drive 02/13 00:21:09 56.7 48.0 73 0 North 0 29.67 0.00
KILNAPER59 Naperville Slav - K9POL 02/13 00:14:18 6.1 -7.0 55 2 South 0 30.44 0.00
KDPA Chicago DuPage Official Station 02/12 23:52:00 6.0 -10.0 48 20 NNW --- 30.52 ---
KLOT Romeoville Official Station 02/13 00:15:00 8.0 -10.0 44 20 North --- 30.48 ---
KARR Aurora Official Station 02/12 23:52:00 8.0 -7.0 50 17 NNW --- 30.54 ---
KJOT Joliet Official Station 02/13 00:15:00 10.0 -8.0 44 14 NNW --- 30.50 ---
Full Advisory Text
No Warnings

Ambient Weather and Weather Underground
 Never base important decisions on this or any weather information obtained from the Internet
Updated Automatically by Ambient Weather's Virtual Weather Station  V14.01